Tracking 23610 objects as of 19-Sep-2021
HD Live streaming from Space Station
objects crossing your sky now

STARLINK-1933

Track STARLINK-1933 now!
10-day predictions
STARLINK-1933 is classified as:


NORAD ID: 46791
Int'l Code: 2020-074BE
Perigee: 553.0 km
Apogee: 555.7 km
Inclination: 53.1 °
Period: 95.6 minutes
Semi major axis: 6925 km
RCS: Unknown
Launch date: October 24, 2020
Source: United States (US)
Launch site: AIR FORCE EASTERN TEST RANGE (AFETR)
aabbcc
Your satellite tracking list
Your tracking list is empty




NASA's NSSDC Master Catalog

Two Line Element Set (TLE):
1 46791U 20074BE  21262.52357704 -.00001025  00000-0 -49905-4 0  9997
2 46791  53.0555  88.7070 0001986  88.7207 271.4010 15.06393607 50671
Source of the keplerian elements: AFSPC